Find Starlink 34013

NORAD ID: 63871 Int'l Des: 2025-094 Owner: SPXS Country: US Constellation: starlink operational
LEOCIRCULAR

現在のビュー

3D地球を読み込み中...

Starlink 34013について

説明を読み込み中...

次回通過

Passes for default location (London). Set your location on the main map for personalized predictions.

高度履歴

Loading altitude history...

軌道要素

1 63871U 25094H 26148.98794671 .00005234 00000-0 44599-3 0 9995
2 63871 70.0023 31.9027 0002900 265.2941 94.7887 14.98338198 59237
Epoch: May 28, 2026 • Age: 26 hours

現在のステータス

高度 574.2 km
速度 7.57 km/s
衛星直下点 -0.09°S, 70.66°W
打ち上げ日 May 10, 2025
運用期間 1 years
タイプ internet

技術仕様

分類 Payload
質量 575.00 kg
乾燥質量 530.00 kg
総質量 575.00 kg
長さ 0.30 m
直径 4.10 m
スパン 29.00 m
形状 Box + pan
製造者 SPXS
バスタイプ Starlink V2MO
フェーズステータス In Orbit
所有者/国 SPXS/US

Most Searched